Time,TemperatureF,DewpointF,PressureIn,WindDirection,WindDirectionDegrees,WindSpeedMPH,WindSpeedGustMPH,Humidity,HourlyPrecipIn,Conditions,Clouds,dailyrainin,SolarRadiationWatts/m^2,SoftwareType,DateUTC
2013-05-23 00:02:00,30.0,29.0,-100.00,WSW,245,2.0,6.0,98,0.00,,,0.00,0.000000,,2013-05-23 06:02:00,
2013-05-23 00:11:00,30.0,29.0,-100.00,WSW,245,2.0,6.0,98,0.00,,,0.00,0.000000,,2013-05-23 06:11:00,
2013-05-23 00:32:00,29.0,29.0,-100.00,WSW,246,2.0,6.0,98,0.00,,,0.00,0.000000,,2013-05-23 06:32:00,
2013-05-23 00:42:00,29.0,29.0,-100.00,WSW,246,2.0,6.0,98,0.00,,,0.00,0.000000,,2013-05-23 06:42:00,
2013-05-23 00:52:00,29.0,29.0,-100.00,WSW,246,2.0,6.0,98,0.00,,,0.00,0.000000,,2013-05-23 06:52:00,
2013-05-23 01:02:00,29.0,29.0,-100.00,WSW,246,2.0,6.0,98,0.00,,,0.00,0.000000,,2013-05-23 07:02:00,
2013-05-23 01:11:00,29.0,29.0,-100.00,WSW,246,2.0,6.0,98,0.00,,,0.00,0.000000,,2013-05-23 07:11:00,
2013-05-23 01:32:00,29.0,29.0,-100.00,SW,235,2.0,7.0,98,0.00,,,0.00,0.000000,,2013-05-23 07:32:00,
2013-05-23 01:42:00,29.0,29.0,-100.00,SW,235,2.0,7.0,98,0.00,,,0.00,0.000000,,2013-05-23 07:42:00,
2013-05-23 01:59:00,29.0,29.0,-100.00,SW,235,2.0,7.0,98,0.00,,,0.00,0.000000,,2013-05-23 07:59:00,
2013-05-23 02:11:00,29.0,29.0,-100.00,SW,235,2.0,7.0,98,0.00,,,0.00,0.000000,,2013-05-23 08:11:00,
2013-05-23 02:32:00,28.0,28.0,-100.00,WSW,257,0.0,5.0,98,0.00,,,0.00,0.000000,,2013-05-23 08:32:00,
2013-05-23 02:42:00,28.0,28.0,-100.00,WSW,257,0.0,5.0,98,0.00,,,0.00,0.000000,,2013-05-23 08:42:00,
2013-05-23 02:52:00,28.0,28.0,-100.00,WSW,257,0.0,5.0,98,0.00,,,0.00,0.000000,,2013-05-23 08:52:00,
2013-05-23 03:01:00,28.0,28.0,-100.00,WSW,257,0.0,5.0,98,0.00,,,0.00,0.000000,,2013-05-23 09:01:00,
2013-05-23 03:11:00,28.0,28.0,-100.00,WSW,257,0.0,5.0,98,0.00,,,0.00,0.000000,,2013-05-23 09:11:00,
2013-05-23 03:33:00,29.0,29.0,-100.00,SSW,204,2.0,4.0,98,0.00,,,0.00,0.000000,,2013-05-23 09:33:00,
2013-05-23 03:42:00,29.0,29.0,-100.00,SSW,204,2.0,4.0,98,0.00,,,0.00,0.000000,,2013-05-23 09:42:00,
2013-05-23 03:53:00,29.0,29.0,-100.00,SSW,204,2.0,4.0,98,0.00,,,0.00,0.000000,,2013-05-23 09:53:00,
2013-05-23 04:02:00,29.0,29.0,-100.00,SSW,204,2.0,4.0,98,0.00,,,0.00,0.000000,,2013-05-23 10:02:00,
2013-05-23 04:12:00,29.0,29.0,-100.00,SSW,204,2.0,4.0,98,0.00,,,0.00,0.000000,,2013-05-23 10:12:00,
2013-05-23 04:32:00,29.0,29.0,-100.00,South,180,1.0,3.0,98,0.00,,,0.00,0.000000,,2013-05-23 10:32:00,
2013-05-23 04:42:00,29.0,29.0,-100.00,South,180,1.0,3.0,98,0.00,,,0.00,0.000000,,2013-05-23 10:42:00,
2013-05-23 04:52:00,29.0,29.0,-100.00,South,180,1.0,3.0,98,0.00,,,0.00,0.000000,,2013-05-23 10:52:00,
2013-05-23 05:02:00,29.0,29.0,-100.00,South,180,1.0,3.0,98,0.00,,,0.00,0.000000,,2013-05-23 11:02:00,
2013-05-23 05:11:00,29.0,29.0,-100.00,South,180,1.0,3.0,98,0.00,,,0.00,0.000000,,2013-05-23 11:11:00,
2013-05-23 05:32:00,28.0,28.0,-100.00,ESE,110,2.0,4.0,98,0.00,,,0.00,0.000000,,2013-05-23 11:32:00,
2013-05-23 05:42:00,28.0,28.0,-100.00,ESE,110,2.0,4.0,98,0.00,,,0.00,0.000000,,2013-05-23 11:42:00,
2013-05-23 05:52:00,28.0,28.0,-100.00,ESE,110,2.0,4.0,98,0.00,,,0.00,0.000000,,2013-05-23 11:52:00,
2013-05-23 06:01:00,28.0,28.0,-100.00,ESE,110,2.0,4.0,98,0.00,,,0.00,0.000000,,2013-05-23 12:01:00,
2013-05-23 06:11:00,28.0,28.0,-100.00,ESE,110,2.0,4.0,98,0.00,,,0.00,0.000000,,2013-05-23 12:11:00,
2013-05-23 06:32:00,28.0,27.0,-100.00,NW,311,0.0,4.0,97,0.00,,,0.00,0.000000,,2013-05-23 12:32:00,
2013-05-23 06:42:00,28.0,27.0,-100.00,NW,311,0.0,4.0,97,0.00,,,0.00,0.000000,,2013-05-23 12:42:00,
2013-05-23 06:52:00,28.0,27.0,-100.00,NW,311,0.0,4.0,97,0.00,,,0.00,0.000000,,2013-05-23 12:52:00,
2013-05-23 07:01:00,28.0,27.0,-100.00,NW,311,0.0,4.0,97,0.00,,,0.00,0.000000,,2013-05-23 13:01:00,
2013-05-23 07:11:00,28.0,27.0,-100.00,NW,311,0.0,4.0,97,0.00,,,0.00,0.000000,,2013-05-23 13:11:00,
2013-05-23 07:32:00,28.0,27.0,-100.00,West,259,0.0,2.0,96,0.00,,,-99.99,0.000000,,2013-05-23 13:32:00,
2013-05-23 07:42:00,28.0,27.0,-100.00,West,259,0.0,2.0,96,0.00,,,-99.99,0.000000,,2013-05-23 13:42:00,
2013-05-23 07:52:00,28.0,27.0,-100.00,West,259,0.0,2.0,96,0.00,,,-99.99,0.000000,,2013-05-23 13:52:00,
2013-05-23 08:01:00,28.0,27.0,-100.00,West,259,0.0,2.0,96,0.00,,,-99.99,0.000000,,2013-05-23 14:01:00,
2013-05-23 08:11:00,28.0,27.0,-100.00,West,259,0.0,2.0,96,0.00,,,-99.99,0.000000,,2013-05-23 14:11:00,
2013-05-23 08:32:00,28.0,27.0,-100.00,South,184,0.0,3.0,95,0.00,,,0.00,29.000000,,2013-05-23 14:32:00,
2013-05-23 08:42:00,28.0,27.0,-100.00,South,184,0.0,3.0,95,0.00,,,0.00,29.000000,,2013-05-23 14:42:00,
2013-05-23 08:52:00,28.0,27.0,-100.00,South,184,0.0,3.0,95,0.00,,,0.00,29.000000,,2013-05-23 14:52:00,
2013-05-23 09:01:00,28.0,27.0,-100.00,South,184,0.0,3.0,95,0.00,,,0.00,29.000000,,2013-05-23 15:01:00,
2013-05-23 09:11:00,28.0,27.0,-100.00,South,184,0.0,3.0,95,0.00,,,0.00,29.000000,,2013-05-23 15:11:00,
2013-05-23 09:33:00,29.0,27.0,-100.00,SE,141,2.0,3.0,94,0.00,,,0.00,107.000000,,2013-05-23 15:33:00,
2013-05-23 09:43:00,29.0,27.0,-100.00,SE,141,2.0,3.0,94,0.00,,,0.00,107.000000,,2013-05-23 15:43:00,
2013-05-23 09:53:00,29.0,27.0,-100.00,SE,141,2.0,3.0,94,0.00,,,0.00,107.000000,,2013-05-23 15:53:00,
2013-05-23 10:03:00,29.0,27.0,-100.00,SE,141,2.0,3.0,94,0.00,,,0.00,107.000000,,2013-05-23 16:03:00,
2013-05-23 10:12:00,29.0,27.0,-100.00,SE,141,2.0,3.0,94,0.00,,,0.00,107.000000,,2013-05-23 16:12:00,
2013-05-23 10:34:00,30.0,28.0,-100.00,ENE,73,1.0,4.0,91,0.00,,,0.00,197.000000,,2013-05-23 16:34:00,
2013-05-23 10:43:00,30.0,28.0,-100.00,ENE,73,1.0,4.0,91,0.00,,,0.00,197.000000,,2013-05-23 16:43:00,
2013-05-23 10:52:00,30.0,28.0,-100.00,ENE,73,1.0,4.0,91,0.00,,,0.00,197.000000,,2013-05-23 16:52:00,
2013-05-23 11:02:00,30.0,28.0,-100.00,ENE,73,1.0,4.0,91,0.00,,,0.00,197.000000,,2013-05-23 17:02:00,
2013-05-23 11:11:00,30.0,28.0,-100.00,ENE,73,1.0,4.0,91,0.00,,,0.00,197.000000,,2013-05-23 17:11:00,
2013-05-23 11:33:00,35.0,30.0,-100.00,SW,230,2.0,4.0,83,0.00,,,0.00,481.000000,,2013-05-23 17:33:00,
2013-05-23 11:43:00,35.0,30.0,-100.00,SW,230,2.0,4.0,83,0.00,,,0.00,481.000000,,2013-05-23 17:43:00,
2013-05-23 11:52:00,35.0,30.0,-100.00,SW,230,2.0,4.0,83,0.00,,,0.00,481.000000,,2013-05-23 17:52:00,
2013-05-23 12:01:00,35.0,30.0,-100.00,SW,230,2.0,4.0,83,0.00,,,0.00,481.000000,,2013-05-23 18:01:00,
2013-05-23 12:11:00,35.0,30.0,-100.00,SW,230,2.0,4.0,83,0.00,,,0.00,481.000000,,2013-05-23 18:11:00,
2013-05-23 12:32:00,38.0,34.0,-100.00,SW,215,2.0,5.0,86,0.00,,,0.00,871.000000,,2013-05-23 18:32:00,
2013-05-23 12:42:00,38.0,34.0,-100.00,SW,215,2.0,5.0,86,0.00,,,0.00,871.000000,,2013-05-23 18:42:00,
2013-05-23 12:52:00,38.0,34.0,-100.00,SW,215,2.0,5.0,86,0.00,,,0.00,871.000000,,2013-05-23 18:52:00,
2013-05-23 13:01:00,38.0,34.0,-100.00,SW,215,2.0,5.0,86,0.00,,,0.00,871.000000,,2013-05-23 19:01:00,
2013-05-23 13:11:00,38.0,34.0,-100.00,SW,215,2.0,5.0,86,0.00,,,0.00,871.000000,,2013-05-23 19:11:00,
2013-05-23 13:32:00,42.0,35.0,-100.00,SW,229,2.0,4.0,77,0.00,,,0.00,803.000000,,2013-05-23 19:32:00,
2013-05-23 13:42:00,42.0,35.0,-100.00,SW,229,2.0,4.0,77,0.00,,,0.00,803.000000,,2013-05-23 19:42:00,
2013-05-23 13:52:00,42.0,35.0,-100.00,SW,229,2.0,4.0,77,0.00,,,0.00,803.000000,,2013-05-23 19:52:00,
2013-05-23 14:02:00,42.0,35.0,-100.00,SW,229,2.0,4.0,77,0.00,,,0.00,803.000000,,2013-05-23 20:02:00,
2013-05-23 14:11:00,42.0,35.0,-100.00,SW,229,2.0,4.0,77,0.00,,,0.00,803.000000,,2013-05-23 20:11:00,
2013-05-23 14:32:00,44.0,36.0,-100.00,SW,218,3.0,6.0,72,0.00,,,0.00,997.000000,,2013-05-23 20:32:00,
2013-05-23 14:42:00,44.0,36.0,-100.00,SW,218,3.0,6.0,72,0.00,,,0.00,997.000000,,2013-05-23 20:42:00,
2013-05-23 14:52:00,44.0,36.0,-100.00,SW,218,3.0,6.0,72,0.00,,,0.00,997.000000,,2013-05-23 20:52:00,
2013-05-23 15:01:00,44.0,36.0,-100.00,SW,218,3.0,6.0,72,0.00,,,0.00,997.000000,,2013-05-23 21:01:00,
2013-05-23 15:11:00,44.0,36.0,-100.00,SW,218,3.0,6.0,72,0.00,,,0.00,997.000000,,2013-05-23 21:11:00,
2013-05-23 15:33:00,47.0,23.0,-100.00,SSW,207,3.0,6.0,38,0.00,,,0.00,1211.000000,,2013-05-23 21:33:00,
2013-05-23 15:43:00,47.0,23.0,-100.00,SSW,207,3.0,6.0,38,0.00,,,0.00,1211.000000,,2013-05-23 21:43:00,
2013-05-23 15:53:00,47.0,23.0,-100.00,SSW,207,3.0,6.0,38,0.00,,,0.00,1211.000000,,2013-05-23 21:53:00,
2013-05-23 16:02:00,47.0,23.0,-100.00,SSW,207,3.0,6.0,38,0.00,,,0.00,1211.000000,,2013-05-23 22:02:00,
2013-05-23 16:12:00,47.0,23.0,-100.00,SSW,207,3.0,6.0,38,0.00,,,0.00,1211.000000,,2013-05-23 22:12:00,
2013-05-23 16:33:00,51.0,33.0,-100.00,SW,217,4.0,10.0,50,0.00,,,-99.99,1197.000000,,2013-05-23 22:33:00,
2013-05-23 17:32:00,49.0,27.0,-100.00,SW,216,3.0,9.0,42,-99.99,,,0.00,716.000000,,2013-05-23 23:32:00,
2013-05-23 17:42:00,49.0,27.0,-100.00,SW,216,3.0,9.0,42,-99.99,,,0.00,716.000000,,2013-05-23 23:42:00,
2013-05-23 17:52:00,49.0,27.0,-100.00,SW,216,3.0,9.0,42,-99.99,,,0.00,716.000000,,2013-05-23 23:52:00,
2013-05-23 18:01:00,49.0,27.0,-100.00,SW,216,3.0,9.0,42,-99.99,,,0.00,716.000000,,2013-05-24 00:01:00,
2013-05-23 18:11:00,49.0,27.0,-100.00,SW,216,3.0,9.0,42,-99.99,,,0.00,716.000000,,2013-05-24 00:11:00,
2013-05-23 18:32:00,45.0,25.0,-100.00,South,189,3.0,14.0,46,0.00,,,-99.99,529.000000,,2013-05-24 00:32:00,
2013-05-23 18:42:00,45.0,25.0,-100.00,South,189,3.0,14.0,46,0.00,,,-99.99,529.000000,,2013-05-24 00:42:00,
2013-05-23 18:52:00,45.0,25.0,-100.00,South,189,3.0,14.0,46,0.00,,,-99.99,529.000000,,2013-05-24 00:52:00,
2013-05-23 19:01:00,45.0,25.0,-100.00,South,189,3.0,14.0,46,0.00,,,-99.99,529.000000,,2013-05-24 01:01:00,
2013-05-23 19:12:00,45.0,25.0,-100.00,South,189,3.0,14.0,46,0.00,,,-99.99,529.000000,,2013-05-24 01:12:00,
2013-05-23 19:32:00,44.0,26.0,-100.00,SW,234,3.0,12.0,48,0.00,,,0.00,443.000000,,2013-05-24 01:32:00,
2013-05-23 19:42:00,44.0,26.0,-100.00,SW,234,3.0,12.0,48,0.00,,,0.00,443.000000,,2013-05-24 01:42:00,
2013-05-23 19:52:00,44.0,26.0,-100.00,SW,234,3.0,12.0,48,0.00,,,0.00,443.000000,,2013-05-24 01:52:00,
2013-05-23 20:01:00,44.0,26.0,-100.00,SW,234,3.0,12.0,48,0.00,,,0.00,443.000000,,2013-05-24 02:01:00,
2013-05-23 20:11:00,44.0,26.0,-100.00,SW,234,3.0,12.0,48,0.00,,,0.00,443.000000,,2013-05-24 02:11:00,
2013-05-23 20:32:00,40.0,24.0,-100.00,SSE,152,2.0,6.0,53,0.00,,,0.00,111.000000,,2013-05-24 02:32:00,
2013-05-23 20:42:00,40.0,24.0,-100.00,SSE,152,2.0,6.0,53,0.00,,,0.00,111.000000,,2013-05-24 02:42:00,
2013-05-23 20:52:00,40.0,24.0,-100.00,SSE,152,2.0,6.0,53,0.00,,,0.00,111.000000,,2013-05-24 02:52:00,
2013-05-23 21:02:00,40.0,24.0,-100.00,SSE,152,2.0,6.0,53,0.00,,,0.00,111.000000,,2013-05-24 03:02:00,
2013-05-23 21:11:00,40.0,24.0,-100.00,SSE,152,2.0,6.0,53,0.00,,,0.00,111.000000,,2013-05-24 03:11:00,
2013-05-23 21:33:00,38.0,23.0,-100.00,ENE,75,5.0,10.0,54,0.00,,,0.00,39.000000,,2013-05-24 03:33:00,
2013-05-23 21:42:00,38.0,23.0,-100.00,ENE,75,5.0,10.0,54,0.00,,,0.00,39.000000,,2013-05-24 03:42:00,
2013-05-23 21:53:00,38.0,23.0,-100.00,ENE,75,5.0,10.0,54,0.00,,,0.00,39.000000,,2013-05-24 03:53:00,
2013-05-23 22:03:00,38.0,23.0,-100.00,ENE,75,5.0,10.0,54,0.00,,,0.00,39.000000,,2013-05-24 04:03:00,
2013-05-23 22:12:00,38.0,23.0,-100.00,ENE,75,5.0,10.0,54,0.00,,,0.00,39.000000,,2013-05-24 04:12:00,
2013-05-23 22:33:00,36.0,24.0,-100.00,ENE,59,2.0,6.0,61,0.00,,,0.00,21.000000,,2013-05-24 04:33:00,
2013-05-23 22:42:00,36.0,24.0,-100.00,ENE,59,2.0,6.0,61,0.00,,,0.00,21.000000,,2013-05-24 04:42:00,
2013-05-23 22:53:00,36.0,24.0,-100.00,ENE,59,2.0,6.0,61,0.00,,,0.00,21.000000,,2013-05-24 04:53:00,
2013-05-23 23:02:00,36.0,24.0,-100.00,ENE,59,2.0,6.0,61,0.00,,,0.00,21.000000,,2013-05-24 05:02:00,
2013-05-23 23:12:00,36.0,24.0,-100.00,ENE,59,2.0,6.0,61,0.00,,,0.00,21.000000,,2013-05-24 05:12:00,
2013-05-23 23:32:00,35.0,29.0,-100.00,NE,51,3.0,5.0,78,0.00,,,0.00,0.000000,,2013-05-24 05:32:00,
2013-05-23 23:42:00,35.0,29.0,-100.00,NE,51,3.0,5.0,78,0.00,,,0.00,0.000000,,2013-05-24 05:42:00,
2013-05-23 23:52:00,35.0,29.0,-100.00,NE,51,3.0,5.0,78,0.00,,,0.00,0.000000,,2013-05-24 05:52:00,